Location: Unspecified
(0.0000°N, 0.0000°E)
Time: 01:06:31
(UTC+00:00)

deb r/b Ablestar - Pass Details

Date: 25 December 2025
Orbit: 815 x 921 km, 66.9° (Epoch: 13 January)

Event Time Altitude Azimuth Distance (km) Brightness Sun altitude
Rises 18:37:54 0° 222° (SW) 3,532 ? -8.6°
Reaches altitude 10° 18:40:45 10° 233° (SW) 2,599 ? -9.3°
Maximum altitude 18:45:47 28° 290° (WNW) 1,664 ? -10.4°
Drops below altitude 10° 18:50:51 10° 347° (NNW) 2,604 ? -11.6°
Sets 18:53:44 0° 358° (N) 3,540 ? -12.2°
